Theta_e
323 322 322 323 325 326 326 327 327 326 327 331 332 333 334 334 334 333 334 333 331 331 331 331 330 331 333 333 333 334 333 333 332 332 333 334 335 335 336 336 334 333 333 332 331 334 332 331 330 331 331 331 330 329 329 329 329 329 328 328 326 325 326 329 328 329 326 324 326 325 326 328 329 329 328 328 328 327 326 326 327 328 327 327 328
322 321 322 323 325 325 327 326 327 328 330 332 332 333 334 334 334 334 334 333 332 332 332 332 332 332 332 333 334 333 332 331 330 332 332 333 334 335 336 336 334 333 333 332 332 332 331 329 330 331 331 331 331 330 329 330 329 328 328 326 328 326 325 328 328 327 323 321 320 321 323 326 327 328 327 328 329 328 326 325 326 327 327 327 328
320 323 324 325 327 327 327 328 329 331 331 331 333 333 334 334 332 329 330 332 332 332 332 332 332 332 332 332 333 331 332 332 332 332 332 332 333 334 335 335 334 332 333 333 332 331 331 330 330 329 328 330 328 328 329 328 328 328 328 326 325 327 327 328 327 325 322 324 324 320 316 316 321 324 327 327 328 328 328 327 326 327 327 328 327
318 323 327 330 332 332 332 331 331 331 331 330 329 328 328 328 327 328 328 330 329 331 333 332 332 332 331 330 330 331 329 330 331 332 331 332 331 333 333 333 332 331 332 333 332 331 330 330 329 329 329 330 328 327 326 327 327 328 327 327 326 323 325 325 327 324 325 322 315 315 316 317 313 317 320 324 327 327 327 327 327 326 326 326 326
317 324 328 331 331 331 331 331 330 326 325 326 326 326 326 327 328 329 329 330 328 331 331 332 332 330 330 330 330 329 329 328 327 327 330 330 331 331 331 332 331 331 332 332 332 331 330 329 328 329 329 330 329 328 327 327 328 328 328 327 326 325 323 325 326 325 325 325 320 315 312 312 313 318 320 320 325 325 326 326 327 326 326 325 325
322 325 324 323 324 324 322 323 323 324 324 326 327 327 327 328 329 329 330 330 328 329 331 331 330 329 327 326 324 324 323 324 323 324 326 327 329 331 331 332 331 331 331 332 332 331 329 328 329 330 330 330 329 329 329 328 326 326 328 327 326 327 326 324 323 326 326 323 320 319 319 314 313 319 319 313 323 325 325 326 327 327 325 325 324
319 318 317 319 320 320 320 320 322 323 325 326 327 328 328 328 329 329 330 330 329 329 330 330 328 329 328 328 326 324 323 325 327 328 328 329 330 330 330 331 332 331 331 331 331 332 330 328 329 330 330 330 330 329 328 327 328 328 329 327 327 326 326 323 323 323 325 324 323 322 322 319 321 320 315 316 313 320 324 324 325 327 325 325 325
317 317 317 319 320 320 320 320 322 323 325 325 325 327 327 328 328 328 330 330 330 329 329 330 329 328 327 325 326 325 324 324 325 327 329 328 329 329 330 331 332 332 331 331 331 331 330 329 329 329 329 329 330 329 329 328 327 329 329 328 327 327 326 324 324 324 321 322 323 322 320 320 321 320 322 317 316 313 316 324 325 324 324 325 325
316 317 318 319 319 320 321 320 321 323 323 323 324 325 327 327 328 328 329 329 329 329 329 329 329 328 326 325 325 326 326 325 326 328 328 329 328 330 330 330 332 332 332 331 330 331 332 329 329 329 329 329 330 329 329 328 328 327 327 327 326 326 326 326 325 323 323 321 319 316 319 319 318 319 320 318 317 314 315 317 318 322 323 323 322
315 316 317 319 320 320 321 321 320 320 321 323 324 324 324 326 327 327 327 327 326 327 328 329 328 327 325 325 324 325 326 325 325 327 328 329 329 329 329 328 329 330 331 331 330 330 330 330 330 330 329 330 330 329 328 328 328 328 328 328 327 327 326 326 325 325 324 323 323 319 317 316 317 318 317 317 319 319 315 316 318 318 317 320 321
312 313 314 315 317 319 321 320 319 320 320 322 322 322 323 324 326 328 329 329 329 329 328 327 326 326 325 325 324 324 324 325 324 326 328 328 328 327 327 327 329 330 330 330 330 330 330 330 329 329 330 331 330 328 327 328 328 328 328 328 327 327 326 326 325 325 325 323 322 321 321 320 319 316 317 317 316 315 317 317 318 320 319 318 321
310 310 310 311 312 313 315 316 319 318 319 319 319 321 322 324 325 325 327 328 329 328 326 325 325 325 324 324 324 324 325 325 324 325 327 327 328 326 327 328 328 328 329 328 328 329 329 329 330 329 329 330 329 328 327 329 329 329 328 327 327 327 327 326 325 324 324 323 323 322 322 322 320 319 320 320 319 318 318 317 317 319 319 319 320
306 306 307 307 308 309 310 312 314 315 316 318 319 320 320 323 324 324 324 327 327 325 325 325 324 324 324 324 323 324 325 326 325 324 325 327 328 327 325 325 325 325 327 327 328 328 329 328 328 328 328 329 329 328 328 328 329 329 328 327 327 326 326 326 325 324 324 323 323 322 322 322 321 320 321 320 318 319 319 317 318 320 317 317 319
304 305 305 305 306 307 308 310 311 312 314 315 317 319 320 322 323 323 323 324 325 324 322 321 321 321 322 322 323 324 326 326 325 325 326 327 327 327 326 326 325 326 327 327 328 328 329 329 329 328 329 328 328 328 328 328 328 328 328 327 326 327 327 326 326 325 324 325 325 322 321 322 321 320 321 320 319 319 318 318 317 318 318 317 317
303 303 303 304 305 306 307 308 309 310 312 313 314 316 319 321 322 323 323 322 321 321 321 321 320 322 322 323 324 325 327 326 325 325 325 325 326 326 326 326 325 326 326 327 327 328 328 328 328 328 328 328 328 327 328 328 328 328 328 327 327 327 326 326 325 324 324 323 323 324 323 322 321 321 321 321 321 321 320 319 318 314 314 316 317
302 302 302 303 304 305 305 306 307 308 310 311 312 313 315 317 320 321 322 321 320 320 321 321 321 323 323 322 324 326 326 327 325 324 325 326 326 327 326 326 326 325 325 325 325 326 327 327 327 328 328 328 328 328 328 327 326 327 326 327 326 327 326 325 325 324 324 324 324 324 323 323 322 322 322 322 322 322 321 321 320 318 314 311 313
300 301 301 302 303 303 304 305 306 307 308 309 310 311 313 314 315 316 319 321 320 321 321 321 322 322 323 323 323 323 324 325 326 325 324 324 324 325 327 326 325 326 325 326 326 326 326 326 326 327 327 327 328 328 327 327 327 327 326 325 325 326 326 325 325 324 324 324 324 323 324 324 322 322 322 322 322 321 321 322 321 320 319 315 312
300 300 301 301 302 302 303 304 305 306 307 308 308 310 311 312 313 313 315 318 321 321 321 321 320 320 321 322 322 323 323 324 324 324 324 324 324 325 325 324 325 326 326 326 326 326 326 328 326 326 326 326 327 326 326 326 326 326 326 326 326 326 325 324 324 325 323 324 323 322 323 323 323 323 323 322 322 322 321 321 321 321 321 318 316
299 299 300 300 301 301 302 302 303 304 306 306 307 308 309 309 310 311 311 314 315 318 322 322 321 321 321 321 322 323 323 324 325 325 324 324 325 325 324 324 324 325 325 325 325 325 325 326 326 325 324 325 326 325 326 326 326 326 325 324 324 325 325 324 323 324 323 323 322 322 322 323 322 323 322 322 322 322 322 321 321 321 320 319 317
298 298 299 299 300 301 301 302 302 303 304 305 306 306 306 307 307 308 309 310 310 312 314 318 321 321 322 322 322 323 324 324 323 323 324 323 324 325 325 324 324 325 325 325 325 324 324 325 325 325 323 324 325 325 326 326 326 325 324 323 323 324 324 323 322 323 323 323 323 322 322 323 322 322 322 321 321 321 322 321 321 320 319 318 318
297 297 298 299 299 300 301 301 302 302 303 303 303 303 304 304 305 305 306 307 307 309 312 314 316 320 322 321 321 321 322 324 324 324 323 324 325 325 325 326 325 325 325 325 324 324 324 324 323 322 321 322 324 324 325 325 325 324 324 324 323 324 324 323 323 322 323 323 323 323 322 322 323 323 322 321 321 321 321 321 321 320 318 316 318
297 297 298 298 299 299 300 301 301 301 301 301 301 302 301 302 303 303 304 305 305 307 309 311 315 318 321 323 323 323 324 325 324 323 323 324 324 325 326 325 325 325 325 325 324 323 323 323 322 322 322 322 323 324 324 324 324 323 322 323 323 324 324 323 322 323 323 323 323 323 322 322 322 324 322 321 321 320 320 320 319 319 318 315 318
296 296 297 298 298 298 299 299 299 299 299 300 300 300 300 300 301 301 302 302 305 306 308 311 313 316 319 322 324 325 325 324 323 323 323 324 324 324 325 325 325 325 325 325 324 323 323 323 322 322 322 322 323 323 323 324 324 323 322 322 323 324 324 323 322 323 323 323 322 323 322 322 322 322 322 322 321 321 322 320 320 319 318 316 314
296 296 297 297 297 298 298 298 298 298 298 298 299 299 299 299 300 300 300 301 304 305 306 308 312 313 316 319 322 324 325 325 324 323 323 323 324 324 325 325 325 324 324 324 324 323 323 322 322 322 322 322 323 323 323 324 324 323 323 322 322 323 323 323 323 323 323 323 323 322 322 321 322 322 320 321 321 321 321 321 320 320 320 317 316
295 295 295 296 296 296 296 297 297 297 297 298 298 298 298 298 299 299 300 301 302 304 305 306 309 310 313 314 316 319 323 325 324 323 323 323 323 323 324 324 324 323 323 323 323 323 322 322 322 322 322 321 322 323 323 323 323 323 323 322 322 322 323 323 324 323 324 323 322 323 322 321 321 322 319 320 321 320 321 321 321 320 319 319 317
294 294 294 294 295 295 296 296 296 296 296 297 297 298 297 297 298 299 299 300 301 303 304 305 306 307 309 310 312 314 316 320 323 324 323 323 323 323 323 323 324 323 322 323 322 322 322 322 322 322 322 321 321 322 323 323 322 321 322 322 322 322 322 323 323 323 324 323 324 323 322 322 322 322 320 320 320 321 320 321 321 320 320 319 319
293 293 293 293 293 294 294 295 295 296 296 296 296 296 297 297 297 298 298 299 300 302 303 303 304 305 305 307 309 310 312 316 321 323 324 323 323 323 323 323 323 323 322 322 322 322 322 322 322 322 321 321 320 321 322 322 321 320 320 321 321 321 321 321 321 322 323 323 324 324 322 322 322 323 322 320 319 320 320 321 321 321 321 319 317
293 292 292 292 293 293 294 294 295 295 295 295 296 296 296 296 296 297 298 299 300 301 302 302 303 303 303 305 306 308 310 314 319 323 323 322 322 323 323 323 323 323 322 321 321 321 321 321 321 321 321 319 318 319 319 320 320 319 319 319 320 320 320 320 320 320 321 320 321 321 321 321 322 322 322 320 320 321 321 320 320 321 320 319 318
292 292 292 292 292 292 293 293 294 294 293 294 295 296 296 296 297 297 298 298 300 300 301 301 302 302 302 304 305 306 309 311 316 321 323 322 322 322 323 323 323 322 321 321 321 321 319 317 316 316 314 315 316 317 317 317 317 317 317 317 318 319 319 319 317 316 317 317 315 315 316 317 322 322 315 314 315 317 320 320 318 319 318 318 315
290 291 291 292 292 292 292 292 292 292 293 294 294 295 295 295 296 297 297 298 299 299 300 300 301 301 302 303 304 305 306 309 314 319 322 323 322 322 322 323 323 322 322 321 320 318 317 315 312 311 310 311 312 310 311 309 311 316 315 316 316 317 318 317 316 315 314 314 314 315 320 320 315 312 309 307 306 308 314 320 319 318 318 317 314
290 291 291 291 292 292 291 291 291 292 292 293 293 294 295 295 296 296 296 298 298 298 299 300 300 301 302 303 303 304 305 307 310 315 321 322 322 322 322 322 322 321 320 319 318 314 314 313 312 310 308 308 307 306 300 299 302 306 314 315 315 314 315 316 316 316 313 311 310 310 312 313 310 308 305 298 298 300 303 307 308 311 316 319 316
290 290 291 291 291 291 291 291 291 292 293 293 293 294 294 294 295 296 296 297 297 298 298 299 300 300 301 301 302 303 304 305 307 309 316 321 321 321 321 321 320 318 317 317 316 314 312 311 310 309 308 306 304 300 295 296 298 300 307 314 314 314 314 315 316 314 311 310 308 307 308 310 310 306 305 303 300 296 295 296 296 295 296 297 305
290 290 291 291 291 291 291 291 292 292 292 293 293 293 293 294 294 295 296 296 296 297 297 298 299 300 300 301 302 302 303 304 305 308 311 318 320 320 320 319 318 316 314 314 314 312 309 308 308 306 305 303 302 295 294 296 297 299 301 308 314 315 315 314 314 312 309 307 306 306 306 305 310 310 308 304 304 303 298 296 297 298 297 294 292
291 291 291 291 292 292 292 292 292 292 293 293 294 293 293 294 295 295 295 295 295 296 296 296 298 299 300 300 301 302 302 303 304 305 307 310 316 319 318 317 314 311 311 310 309 308 306 306 306 305 303 302 301 297 294 296 297 297 299 305 313 313 312 311 310 308 307 306 306 307 306 305 306 308 308 308 307 306 304 304 302 302 302 301 298
290 291 291 291 292 292 292 292 292 292 293 292 293 293 293 293 294 294 294 294 294 295 295 295 296 298 299 299 300 301 301 302 303 303 303 304 303 304 307 307 307 307 306 305 305 304 303 303 303 303 302 300 298 295 295 295 296 298 300 303 310 307 305 302 301 301 301 301 302 303 304 305 306 308 310 309 308 305 303 301 300 300 300 300 300
291 291 291 291 292 292 292 292 293 292 292 292 292 292 292 293 294 294 294 294 294 294 294 294 295 296 297 299 299 300 301 301 301 301 301 300 300 300 300 301 301 300 300 300 300 301 301 300 300 300 301 300 299 294 294 295 297 298 300 306 304 302 301 299 299 298 298 299 299 301 302 302 304 307 304 300 302 304 301 300 299 299 299 300 300
292 293 292 293 293 293 293 293 291 291 292 291 292 292 292 293 293 293 293 293 293 293 293 294 294 295 296 298 299 299 300 300 300 300 299 299 298 298 298 299 298 298 297 297 297 297 298 298 299 299 300 299 298 295 294 295 296 297 300 303 301 300 299 298 298 299 299 298 298 297 298 299 300 301 298 296 297 299 301 300 299 298 299 299 299
293 294 294 294 294 293 294 292 291 292 292 292 292 292 292 292 293 293 293 293 293 293 293 293 293 294 296 297 298 299 299 299 299 299 298 298 299 298 298 298 297 297 296 297 297 297 298 297 297 297 299 298 297 295 293 295 296 297 300 301 300 298 297 296 296 296 297 298 300 301 298 296 297 297 293 294 295 300 300 299 299 298 298 298 299
293 293 293 293 293 293 293 293 292 292 292 292 292 292 293 292 293 293 293 293 293 293 293 293 293 294 295 296 297 298 298 299 298 298 299 298 298 298 298 299 298 298 297 297 298 297 297 297 297 297 299 297 297 296 293 293 294 296 300 300 299 297 295 295 295 295 296 296 296 296 296 296 296 294 291 292 293 298 299 299 298 297 297 297 297
294 294 294 294 294 293 292 291 291 292 292 293 293 292 293 293 293 293 293 293 293 293 294 294 294 294 295 296 297 297 298 298 299 299 299 299 299 299 298 298 298 298 297 297 297 296 295 295 296 296 296 296 295 295 294 293 294 295 296 300 299 297 295 294 295 295 295 296 296 296 295 291 290 291 291 291 292 293 298 299 299 298 298 297 298
293 294 295 294 293 292 291 291 292 292 293 293 293 292 292 293 293 292 292 293 293 294 295 295 295 295 295 295 296 297 297 298 299 300 300 300 299 299 298 298 297 297 297 296 296 296 295 295 295 295 295 295 296 294 293 292 293 293 294 296 298 297 296 296 295 295 296 295 295 295 295 292 291 291 291 291 291 292 294 298 298 298 298 298 297
295 295 295 294 294 293 293 293 294 294 294 293 293 293 292 292 292 292 293 294 294 294 295 295 295 295 295 295 295 296 297 297 298 300 300 299 300 300 299 298 298 297 296 296 295 295 295 295 295 295 295 294 296 295 294 292 291 292 293 294 297 297 297 296 295 295 295 295 295 294 293 292 290 291 291 291 291 291 291 294 291 289 290 292 298
293 293 294 294 293 293 293 293 294 294 294 293 292 292 292 293 292 293 294 294 294 294 295 296 296 295 295 295 295 295 296 297 297 298 299 299 299 299 299 298 297 296 296 295 295 295 295 294 294 294 294 294 294 295 292 292 291 291 291 292 293 294 293 298 296 294 294 294 294 294 293 291 290 290 290 290 291 291 293 292 290 290 291 292 295
291 291 292 292 291 292 292 292 293 293 293 292 292 292 292 292 292 295 295 295 295 295 295 295 296 295 295 295 295 295 295 295 296 296 297 298 298 299 298 298 297 296 295 294 294 294 294 293 293 293 293 294 294 294 293 292 291 290 290 291 291 291 293 296 297 295 295 294 293 293 292 290 290 290 289 289 289 290 290 290 290 291 292 293 298
292 293 294 294 293 292 293 293 294 294 294 293 292 291 292 291 293 295 295 295 295 295 295 294 295 295 294 294 294 294 294 294 295 296 295 295 296 297 297 297 297 296 295 294 293 293 293 292 292 292 292 293 293 294 294 293 292 291 290 290 291 291 292 293 295 295 294 293 291 290 290 290 290 290 290 290 290 289 289 289 289 291 294 295 296
292 293 293 293 293 293 293 293 293 294 294 293 292 291 291 291 294 295 295 295 294 294 294 294 294 295 295 294 293 293 293 293 293 294 295 295 294 295 295 295 296 296 295 294 293 293 292 292 292 292 292 292 293 293 293 293 294 294 292 291 291 291 292 292 292 292 290 290 290 290 290 290 290 291 292 291 291 291 289 289 290 291 292 291 292
289 290 290 291 291 291 291 292 292 293 293 293 292 292 292 292 293 293 294 294 293 293 293 293 293 294 295 294 293 292 292 292 292 292 293 293 294 293 293 293 293 295 295 294 294 293 293 292 292 292 292 293 292 292 292 292 293 293 294 295 295 294 293 293 294 294 292 292 291 291 290 289 289 289 289 289 290 290 290 290 290 290 290 290 289
287 288 289 289 289 289 289 290 290 291 291 292 292 292 293 293 293 293 293 293 292 292 292 292 293 293 294 294 293 289 291 291 291 290 290 291 292 292 291 290 290 291 294 293 293 293 292 292 292 292 292 292 292 292 290 289 290 292 293 294 294 294 294 293 293 293 293 294 292 291 291 292 291 291 290 290 289 289 288 288 288 288 288 289 289
287 288 288 287 288 289 289 289 290 290 290 291 292 292 293 293 292 293 293 292 291 290 291 291 292 293 293 293 293 292 292 292 291 291 290 289 289 290 291 291 291 291 292 294 293 293 293 293 293 293 292 291 291 291 290 288 288 288 289 293 293 293 293 292 292 291 293 292 292 291 290 289 289 287 287 287 288 288 287 287 287 287 287 287 287
285 286 286 287 288 287 288 289 289 288 289 290 291 292 292 292 293 293 292 291 290 290 289 290 291 291 291 292 293 292 292 291 291 291 291 291 288 289 289 290 289 289 289 289 290 292 293 293 291 290 291 292 292 291 287 287 288 288 289 289 289 290 290 291 290 289 291 289 288 287 287 287 286 286 286 286 286 286 286 286 286 286 286 286 286
285 285 286 286 286 287 286 287 288 288 289 289 289 290 290 291 291 292 292 291 290 289 289 289 289 290 290 291 292 292 291 291 291 291 291 291 291 291 289 288 289 289 289 289 288 289 289 289 292 291 289 288 287 287 288 288 289 289 289 289 289 289 289 289 289 289 288 287 287 286 286 286 286 286 285 285 285 285 285 285 285 285 286 285 285
Wind_Speed
4 3 2 3 4 3 2 1 1 2 3 4 5 6 6 5 5 7 5 6 6 6 6 6 6 6 6 7 7 7 8 8 7 6 6 6 7 7 7 6 8 9 8 6 7 6 6 5 5 5 5 6 6 7 7 7 7 7 6 5 10 10 7 6 7 8 9 7 4 5 5 4 4 4 4 4 4 2 1 3 3 3 2 3 2
5 4 4 3 3 3 3 3 1 1 1 3 4 4 4 4 5 5 2 5 5 5 5 6 6 7 7 7 6 5 7 8 7 6 7 6 6 8 8 7 8 8 8 6 6 7 6 6 6 6 4 5 5 5 6 7 7 8 7 5 2 7 7 8 8 8 5 6 7 5 3 4 4 4 3 4 4 4 3 0 2 3 3 3 3
4 5 5 5 4 3 2 3 4 4 2 2 1 1 1 1 5 7 8 3 1 1 3 4 3 3 3 3 6 2 1 4 6 7 7 8 9 8 7 7 7 7 8 8 7 7 7 7 5 5 5 2 5 4 4 6 7 9 9 8 6 3 5 6 8 2 6 6 5 5 4 2 2 2 2 2 2 3 2 2 3 2 3 3 3
2 3 5 5 4 4 2 3 4 5 7 8 10 9 9 11 9 6 7 6 3 1 1 1 2 1 1 0 1 2 2 1 4 4 5 7 9 8 6 8 9 8 8 8 7 7 7 7 5 7 8 6 7 7 5 6 7 7 8 7 9 8 6 6 5 3 5 10 4 1 3 2 3 3 3 1 1 3 4 3 4 3 3 3 2
4 5 4 4 5 7 9 8 9 8 10 9 7 6 1 6 8 9 8 5 4 2 2 3 4 3 2 2 3 3 3 4 4 1 7 8 7 7 8 9 9 8 8 8 7 7 6 5 8 8 7 6 6 7 8 9 7 8 9 9 9 9 8 6 6 3 7 1 6 5 3 1 3 3 5 2 3 3 4 4 3 3 3 2 2
8 9 11 12 11 11 11 10 9 8 8 7 8 7 5 5 5 5 1 2 3 1 1 1 4 5 4 4 4 3 4 5 8 10 10 10 11 8 7 7 6 6 6 5 6 6 6 6 7 7 7 6 6 6 7 7 8 7 8 9 8 8 10 8 8 4 5 1 2 2 4 5 6 4 5 3 2 1 4 4 4 3 2 2 1
10 10 11 12 10 9 8 7 6 10 8 7 10 12 9 5 4 1 1 3 5 6 5 3 3 3 5 7 5 5 5 5 2 4 7 4 3 6 7 6 6 7 6 5 5 5 6 7 8 8 8 6 3 4 6 9 9 10 7 7 8 7 6 10 10 7 4 5 2 1 1 1 6 8 3 4 3 1 3 3 3 2 3 3 2
10 10 10 10 10 8 6 3 2 5 6 7 8 7 12 13 7 6 7 6 7 8 8 7 7 5 3 1 4 6 7 7 4 4 3 4 4 6 7 7 7 7 7 6 4 4 6 7 7 7 7 7 8 7 7 7 7 5 7 7 6 8 9 9 9 8 9 6 3 2 2 3 3 4 6 6 5 6 3 2 3 3 3 3 2
13 12 11 11 10 9 7 6 7 5 3 6 6 4 2 2 3 5 7 6 6 7 7 7 6 4 4 3 5 5 5 5 1 3 4 6 8 7 6 6 5 6 7 7 9 8 6 6 6 5 5 6 6 5 4 6 9 9 8 6 7 7 7 6 8 9 7 6 5 1 4 4 3 3 5 4 4 5 3 5 4 1 2 2 2
10 12 11 10 9 9 7 6 6 5 6 7 7 7 8 7 8 6 7 5 1 2 4 5 3 4 4 4 9 5 4 4 1 3 5 4 7 5 3 4 6 8 8 7 6 7 7 8 8 8 6 6 4 5 6 9 9 9 10 9 9 9 6 7 8 8 8 6 6 6 4 4 4 3 3 4 3 2 5 7 6 5 6 2 2
10 11 12 12 12 12 9 8 7 8 6 5 7 8 8 7 7 7 5 3 2 0 2 1 3 3 3 3 7 9 8 5 5 5 6 6 5 6 5 7 7 7 7 6 8 8 6 6 7 8 8 7 6 5 9 9 8 8 8 9 9 9 7 7 6 6 6 6 6 6 7 8 7 5 7 6 4 4 5 5 6 6 5 3 2
10 10 11 13 14 15 15 15 12 9 10 9 6 5 6 6 6 7 8 4 1 2 5 4 6 6 5 6 8 8 6 6 6 6 6 7 6 7 5 4 4 4 7 7 8 7 7 7 7 7 7 7 7 6 8 7 7 7 7 8 7 8 7 7 6 7 8 6 7 6 6 6 5 5 7 7 7 6 7 7 7 6 4 4 2
12 12 12 12 11 11 12 12 14 14 12 11 9 6 4 2 3 5 5 6 2 4 5 5 4 4 6 5 4 3 3 3 3 4 6 7 7 8 8 8 6 7 8 9 9 9 8 7 6 7 7 7 7 6 6 7 6 7 7 8 8 9 8 8 7 8 9 8 8 6 5 5 6 3 5 6 3 5 6 7 5 6 5 4 2
11 11 11 11 12 12 12 11 11 12 13 13 12 10 8 6 5 4 4 3 3 4 3 3 1 2 3 3 2 2 3 2 3 4 5 5 4 6 7 8 7 9 9 8 8 7 7 7 6 6 6 7 8 7 7 7 7 7 7 8 8 8 7 9 8 8 8 8 6 6 5 6 5 4 6 6 7 7 6 8 8 4 2 5 1
12 11 11 12 11 12 12 12 12 12 14 13 12 12 11 10 9 8 7 5 4 4 5 6 5 3 2 1 1 1 2 2 3 4 5 5 4 5 5 5 6 4 5 2 1 5 6 5 6 6 6 7 7 7 7 7 6 7 6 7 7 7 8 8 7 8 7 8 7 7 6 5 5 5 6 6 6 7 7 7 9 8 3 2 3
11 12 13 13 11 12 11 11 11 12 13 11 13 12 12 12 12 10 7 6 5 5 4 3 3 2 1 1 4 6 6 6 5 5 5 5 5 6 5 5 4 2 1 0 1 3 5 6 6 7 7 7 7 8 8 8 7 7 6 6 7 5 7 8 7 8 8 9 8 6 6 6 5 6 6 7 6 6 6 6 7 8 8 5 3
11 11 11 13 12 12 11 11 11 11 11 12 11 11 12 12 13 14 12 7 6 5 4 2 3 3 4 4 5 5 5 6 7 7 6 4 3 2 3 2 7 6 7 8 7 3 3 5 6 7 7 7 7 7 7 6 7 7 6 7 7 6 8 9 7 7 7 7 6 8 7 6 6 5 5 6 6 5 6 7 7 9 8 8 7
10 10 10 10 10 12 11 10 10 10 10 11 12 11 10 10 11 13 13 13 10 8 5 3 3 4 4 3 3 4 4 4 3 2 1 3 5 4 3 2 4 6 6 7 7 9 8 7 6 5 6 7 8 8 8 8 7 6 7 7 6 6 7 5 6 6 6 6 6 6 5 5 5 6 7 6 7 7 6 7 7 6 6 8 6
10 10 10 10 11 11 11 12 12 10 10 10 11 11 11 12 13 11 13 12 13 12 8 3 4 5 4 4 3 3 2 3 2 0 2 6 5 5 4 4 3 3 4 4 6 6 7 8 7 5 4 8 8 8 8 7 7 7 6 6 7 6 6 7 5 6 6 6 7 7 6 5 5 6 5 6 6 6 6 6 6 6 6 5 7
11 11 10 11 11 12 11 11 12 12 11 11 11 11 14 13 13 14 14 14 15 14 13 11 8 6 7 6 4 2 1 2 5 6 5 4 5 7 8 8 9 7 7 7 7 7 7 7 6 4 6 7 8 8 8 7 7 6 6 6 6 6 6 7 6 5 5 6 7 7 7 6 6 5 6 6 6 6 6 6 6 7 6 5 6
10 10 10 11 11 12 12 11 10 10 9 10 11 12 11 12 13 14 14 13 14 13 12 11 10 10 9 8 6 5 4 5 8 8 3 5 8 5 5 7 6 7 7 7 7 7 7 6 6 6 3 6 7 7 7 7 7 7 6 7 7 7 7 5 6 6 5 6 7 7 7 6 6 7 6 5 6 6 6 6 5 6 5 5 7
10 10 10 10 11 12 12 11 11 11 13 15 13 12 13 13 13 13 13 11 12 12 12 12 11 11 10 8 7 4 5 8 10 6 5 8 7 5 5 5 7 7 7 8 8 7 7 7 6 6 6 5 4 6 7 7 7 7 7 6 7 8 7 7 6 7 6 6 7 7 6 6 6 6 6 6 6 6 6 6 5 6 7 6 5
9 10 10 10 10 11 10 11 12 12 12 13 13 13 13 13 13 12 12 13 11 10 9 9 10 11 12 10 8 6 6 8 9 6 6 7 6 6 6 7 7 6 7 7 7 7 7 8 7 5 5 6 6 6 6 7 7 8 8 7 7 8 8 8 7 7 7 6 6 6 6 6 5 5 6 6 6 7 6 7 8 6 7 6 5
10 9 9 9 9 9 10 12 12 12 13 13 11 12 13 12 11 11 11 13 11 11 10 9 9 10 11 11 9 8 6 8 7 6 8 8 7 6 6 7 7 6 7 6 6 7 7 8 8 7 6 5 6 6 6 7 8 8 8 8 8 7 7 7 8 7 6 6 7 6 5 6 6 6 6 6 6 6 7 7 7 7 7 7 6
10 10 10 10 11 11 11 11 11 12 12 11 12 13 13 13 13 13 12 12 11 10 10 10 10 11 10 10 12 11 9 7 6 6 9 9 7 6 5 6 5 6 6 6 6 6 7 8 9 9 8 6 7 7 7 7 6 6 8 8 8 8 7 7 7 7 6 7 7 7 6 6 6 7 5 6 5 8 6 6 7 6 6 5 5
9 10 10 11 9 9 10 11 10 11 11 11 11 11 11 11 12 11 13 13 12 11 11 11 10 11 10 11 10 10 10 10 7 5 9 8 8 7 5 4 5 6 5 6 8 7 8 9 8 9 8 8 7 8 8 8 7 6 6 7 7 8 7 7 7 7 7 7 7 7 6 7 7 7 7 6 5 7 6 6 7 6 6 6 6
9 8 8 9 10 12 11 11 10 10 11 10 10 11 11 10 11 12 11 11 12 12 12 10 10 10 10 12 11 11 10 9 9 7 8 8 9 10 10 10 9 8 8 8 7 7 6 8 8 7 8 9 8 7 7 7 6 6 6 7 7 7 7 6 6 6 7 7 7 7 7 7 8 8 8 8 8 7 7 8 8 7 6 6 7
8 10 11 11 10 10 11 11 11 11 10 10 10 9 10 10 11 11 11 11 9 12 12 12 11 10 10 11 11 12 11 10 9 8 8 7 7 7 7 7 7 8 9 8 8 8 7 7 7 8 7 7 7 7 7 7 7 7 7 6 6 7 6 6 5 5 4 3 3 4 5 6 6 6 6 6 7 7 6 7 6 5 7 7 7
9 9 9 10 10 10 11 11 10 10 11 11 11 11 10 10 9 10 10 11 10 11 12 12 13 12 12 11 11 11 10 11 10 9 9 8 8 9 8 8 8 8 8 10 8 9 8 7 6 7 7 7 7 7 7 7 7 7 7 7 7 7 7 6 5 4 4 5 4 3 4 5 5 5 7 8 9 9 8 7 6 6 6 6 5
9 9 9 9 9 9 9 9 10 11 11 10 10 10 10 11 11 11 11 11 10 10 12 12 12 13 13 13 12 11 12 11 10 9 9 8 9 8 8 8 9 9 9 7 8 8 9 9 8 7 7 7 6 5 6 10 9 8 7 6 6 7 7 6 7 6 5 4 4 4 4 6 6 7 7 10 12 11 10 8 8 8 8 7 7
9 9 9 9 10 10 10 10 10 11 10 9 9 9 9 11 11 11 11 11 10 11 10 11 13 12 13 13 12 12 12 11 10 11 9 8 9 8 8 9 9 9 10 9 10 9 9 8 9 9 8 6 6 5 8 8 10 12 8 7 7 7 6 7 8 8 7 6 5 5 5 6 7 8 7 7 6 5 5 5 8 8 8 10 9
9 9 9 10 10 10 11 11 11 11 10 10 10 10 10 11 11 11 10 10 10 11 12 11 11 12 12 13 13 14 13 12 10 10 11 9 8 8 9 9 8 8 8 7 10 10 9 8 7 8 8 7 6 5 8 9 9 12 10 8 6 6 6 7 7 8 6 7 6 5 4 3 4 6 7 7 8 8 7 7 8 8 7 6 2
9 10 10 9 10 10 10 11 10 10 11 11 10 10 10 9 10 9 9 10 11 11 11 12 12 12 13 12 12 13 13 12 12 10 10 9 7 7 8 6 9 9 7 9 9 8 8 7 8 9 8 6 6 5 7 8 9 11 11 8 6 7 8 8 8 8 8 7 5 6 6 3 4 10 8 7 10 11 11 13 13 13 13 10 7
8 8 8 9 9 9 9 9 9 9 9 9 8 8 8 7 7 7 9 10 10 12 12 13 13 13 12 12 12 12 13 12 12 12 9 11 8 7 6 6 4 5 6 4 4 8 7 7 7 8 7 5 4 3 6 7 7 10 11 10 7 8 7 7 7 7 6 6 6 8 8 6 4 6 6 8 8 8 8 9 9 8 8 10 11
7 8 8 9 9 9 9 10 10 9 9 9 10 9 8 8 8 9 10 10 11 11 13 13 13 14 14 14 13 13 13 12 12 12 11 9 9 11 10 6 2 3 3 3 2 5 5 5 6 7 7 6 3 4 2 8 10 12 14 11 8 8 9 8 7 6 5 6 6 6 7 7 6 6 5 8 8 8 8 7 8 8 8 7 8
6 7 7 7 9 9 9 9 8 9 9 9 9 8 8 9 9 10 10 10 10 12 12 12 13 13 14 13 12 12 12 11 11 12 11 10 11 10 9 9 8 5 5 6 6 6 5 5 5 6 7 6 5 8 6 9 14 15 15 9 8 8 10 7 7 6 6 5 5 6 7 7 6 6 7 11 10 9 9 9 8 7 7 8 8
6 5 6 6 7 7 8 7 8 8 9 9 9 8 8 9 11 11 11 11 11 12 12 12 12 13 13 13 13 12 12 11 11 12 12 11 11 11 11 9 8 6 8 9 8 8 8 7 6 5 8 7 7 9 8 5 12 16 13 9 10 7 7 8 7 6 6 6 6 5 6 5 6 7 8 12 11 11 9 10 10 9 7 7 7
5 6 6 8 7 7 7 6 7 8 8 8 8 8 8 9 10 10 11 11 12 12 12 12 12 12 12 12 12 12 12 12 11 11 11 11 10 10 10 9 8 7 8 9 9 10 10 10 10 9 6 8 7 9 10 6 3 8 14 11 9 9 8 8 7 6 5 6 8 13 8 6 6 5 8 10 9 10 9 8 8 9 8 8 5
5 5 7 7 6 5 6 8 8 9 9 8 8 8 8 9 9 10 10 12 12 12 11 11 11 11 11 11 11 12 12 12 10 10 11 11 11 10 9 9 8 6 7 9 11 11 11 10 11 11 15 11 9 10 13 10 9 7 8 10 10 10 10 7 7 7 6 5 6 9 12 8 6 9 12 10 7 6 9 8 9 9 8 7 4
6 6 4 3 4 8 9 9 8 8 7 8 7 7 8 8 9 8 11 12 11 9 9 9 9 10 10 11 11 12 12 12 11 10 9 10 10 11 11 11 11 7 6 11 12 11 13 11 11 12 12 12 11 9 12 14 11 11 8 7 7 11 11 9 6 6 6 6 6 6 9 12 12 13 14 13 11 8 8 6 6 8 9 7 3
6 7 7 6 5 4 5 5 6 7 7 7 6 7 8 8 8 10 12 10 9 7 8 8 9 10 11 11 10 11 13 12 11 9 8 9 9 11 11 12 11 8 7 13 13 11 12 12 12 12 12 13 12 11 12 17 15 14 12 8 7 8 10 10 8 7 6 6 6 6 6 11 15 15 15 15 14 13 9 6 6 7 5 8 6
5 7 7 6 6 7 8 8 7 8 8 7 7 8 8 7 8 11 9 8 8 8 7 8 10 10 10 11 11 12 11 10 11 9 9 10 9 9 9 10 9 9 10 12 11 10 11 12 12 13 13 12 14 19 11 16 17 16 15 13 8 7 6 11 11 7 7 7 6 6 6 10 16 16 16 16 15 14 13 9 9 10 12 11 7
7 8 8 7 7 8 8 7 7 7 7 7 8 9 8 7 10 9 8 8 8 8 8 8 10 11 10 11 11 13 11 10 11 10 10 10 9 10 11 10 10 11 11 11 11 9 11 12 12 11 11 11 11 12 18 13 16 16 15 14 13 10 9 9 11 10 8 8 7 8 8 14 17 18 17 16 15 15 13 9 11 11 11 11 8
5 4 5 6 7 7 7 7 7 7 7 7 7 8 9 9 10 8 8 8 8 8 8 9 9 9 10 10 10 11 11 10 11 11 11 11 11 10 10 10 10 10 10 11 9 9 11 12 12 11 11 10 10 10 13 16 13 16 15 15 15 14 12 9 10 10 8 9 8 8 9 15 16 18 19 18 17 14 10 13 12 13 11 9 7
5 5 6 6 6 6 7 8 8 9 8 8 6 8 10 10 9 7 8 7 7 8 8 9 8 8 9 8 9 9 10 10 10 11 11 10 11 10 10 9 9 9 8 9 9 10 11 11 11 11 9 9 9 9 9 12 15 14 14 13 14 15 14 14 11 8 9 8 11 14 15 15 15 15 16 16 15 15 16 14 13 11 9 5 5
4 5 7 5 5 6 7 8 9 8 9 8 8 6 9 9 9 9 8 7 6 7 8 8 8 7 8 8 9 9 9 9 10 9 10 9 9 9 9 9 9 9 9 9 9 10 10 10 10 9 9 7 8 8 8 9 8 9 10 14 16 18 18 16 13 12 14 14 13 15 16 16 14 12 11 9 8 8 14 14 14 11 6 5 4
5 5 4 5 4 6 6 7 8 8 8 8 7 8 8 7 8 8 8 7 7 7 7 7 8 7 7 7 8 7 8 9 9 8 8 8 9 8 9 9 8 8 8 8 9 9 10 10 10 9 9 9 9 9 8 7 7 6 6 6 10 11 14 13 9 7 9 9 12 12 12 14 13 17 15 12 10 9 10 8 7 6 6 6 6
3 3 4 4 4 4 5 5 6 7 7 7 7 7 8 8 8 8 8 7 8 7 7 7 7 6 6 6 6 8 8 7 8 8 8 8 8 7 8 8 7 7 6 6 6 7 6 6 6 6 6 7 7 7 8 7 7 6 5 5 6 6 6 5 7 7 7 7 8 8 9 6 8 9 9 9 9 9 8 7 6 6 6 6 6
5 5 4 4 3 5 5 5 6 5 6 7 7 7 8 8 8 7 7 7 8 8 7 8 7 6 6 6 5 5 5 5 5 7 7 7 7 6 6 6 6 4 4 4 5 5 5 4 5 5 5 5 5 5 4 3 5 5 5 4 5 5 5 5 5 8 7 5 5 4 5 8 9 9 9 9 8 8 8 7 6 6 5 6 6
3 4 4 5 5 4 5 6 6 5 5 6 7 7 7 7 7 7 7 7 7 7 8 8 7 7 6 6 5 4 4 4 5 5 5 6 8 10 7 5 4 7 9 9 5 3 2 3 5 4 3 3 4 3 4 6 6 7 8 8 6 5 5 6 6 6 7 6 4 5 6 8 8 8 8 7 7 6 6 6 6 5 6 6 6
5 6 7 6 6 5 5 6 6 6 6 6 6 7 6 7 7 6 6 6 6 7 7 7 7 6 6 5 4 3 4 3 3 4 4 5 6 8 11 11 8 8 9 10 10 9 9 7 5 4 5 9 7 6 6 5 6 8 8 9 8 8 8 6 5 8 7 4 3 7 7 8 7 7 7 6 5 5 4 4 4 4 4 4 4
Wind_Direction
297 289 253 233 242 242 237 198 160 130 157 175 191 196 198 195 187 198 181 157 163 166 167 169 170 176 193 188 188 181 171 160 164 172 178 190 195 197 193 188 179 185 200 183 188 187 194 196 194 194 179 162 162 174 167 158 154 145 125 122 129 125 134 140 133 129 122 111 122 130 139 148 144 135 135 135 130 121 4 166 148 150 148 149 140
324 354 2 357 340 337 352 0 5 276 211 196 204 198 194 186 198 213 158 173 181 174 171 183 193 196 190 193 191 185 167 167 169 172 174 172 189 200 195 190 192 194 189 192 194 187 187 194 197 193 167 163 155 154 152 145 137 126 137 107 110 134 142 156 149 133 124 141 139 129 114 108 118 133 144 145 134 131 145 132 53 143 155 157 140
8 26 27 21 18 15 11 10 354 331 332 290 271 204 5 19 22 4 352 350 26 120 184 197 208 229 213 197 195 132 69 159 167 179 185 183 192 203 194 187 193 202 196 190 191 192 192 193 190 92 74 84 112 125 153 161 156 151 155 148 135 119 133 155 165 144 137 138 115 111 139 120 130 136 82 100 140 141 132 130 124 144 150 130 139
37 53 45 56 55 62 55 26 14 8 4 8 1 19 27 34 32 17 337 324 13 352 303 286 176 308 292 88 113 104 136 88 100 152 188 201 202 197 196 190 193 199 197 190 192 189 189 190 113 131 183 181 165 147 144 205 164 161 149 158 143 140 155 172 185 191 149 141 149 194 146 147 153 190 147 137 120 158 168 154 157 161 143 130 130
47 45 60 84 69 48 42 33 37 32 32 29 37 46 115 203 175 169 197 196 157 174 150 152 152 126 134 89 106 94 90 149 108 88 194 213 206 199 203 201 194 193 203 195 185 188 182 149 132 185 187 180 169 154 165 186 186 171 162 157 163 153 161 164 192 199 192 315 140 120 90 201 219 145 136 151 154 147 148 150 147 150 145 147 143
34 47 51 49 44 52 53 54 73 87 102 149 154 157 220 249 210 212 106 98 98 110 101 165 179 175 161 170 175 182 190 172 175 185 198 201 207 197 202 208 194 190 202 199 186 172 169 144 160 179 178 188 178 175 172 163 175 183 185 166 164 169 156 164 177 213 209 197 296 156 169 178 173 172 149 159 68 133 155 151 164 161 148 190 169
35 34 27 38 38 46 50 51 75 108 140 167 182 170 161 243 271 19 168 153 146 162 176 186 210 211 200 206 185 207 210 235 234 226 211 199 155 178 194 198 195 193 197 194 191 176 161 147 175 189 181 170 179 190 178 178 184 185 175 167 169 147 151 167 176 180 187 255 250 40 121 141 154 141 164 110 169 204 140 138 141 160 160 191 176
39 39 36 29 39 47 56 59 98 146 174 197 223 201 170 180 202 196 200 183 173 171 183 186 186 191 196 21 256 237 212 229 192 223 254 160 200 192 188 190 190 193 190 186 160 189 174 158 173 185 172 172 180 196 195 169 184 181 175 171 153 158 173 169 173 167 180 201 203 242 84 110 97 48 137 158 152 167 190 103 102 150 153 170 164
32 33 33 33 32 31 28 20 351 341 317 297 298 318 348 322 167 192 211 197 180 173 180 191 191 162 122 159 245 235 296 269 142 155 201 193 194 194 185 178 173 190 200 181 187 190 166 153 154 165 186 189 193 192 179 189 186 168 166 160 168 174 180 168 158 177 190 191 157 89 102 111 74 73 121 90 135 154 166 182 171 130 120 146 129
29 28 24 26 23 23 25 24 19 11 343 343 340 350 8 11 355 344 326 326 324 170 171 190 184 107 117 186 215 210 211 256 251 193 201 195 191 173 171 136 185 202 198 194 180 168 166 158 152 152 172 191 201 212 195 207 188 176 175 176 178 179 176 164 175 179 192 181 179 153 137 116 81 82 107 113 102 105 161 184 184 168 175 162 120
25 21 22 18 10 11 12 24 20 10 10 18 6 352 353 355 353 335 321 310 331 3 149 130 97 145 174 218 230 217 203 191 191 199 194 194 192 162 173 191 201 206 202 191 188 186 169 159 163 165 168 173 174 180 203 209 185 180 177 177 178 181 179 173 167 176 178 172 168 173 163 168 167 166 177 181 147 146 137 160 171 191 181 155 181
19 21 17 13 12 11 10 12 12 6 4 10 6 356 358 349 343 328 317 298 302 78 100 147 193 187 171 199 230 236 198 183 192 200 197 199 184 176 179 188 164 207 198 200 204 192 183 182 174 164 166 167 176 190 219 210 183 178 172 177 183 188 179 173 169 166 177 183 185 182 176 179 162 162 173 175 170 162 155 159 173 166 141 186 140
20 20 15 11 11 7 7 7 11 12 7 359 353 344 339 341 343 336 341 321 223 171 196 213 219 194 190 216 251 305 276 169 177 220 208 208 198 180 176 176 162 193 202 201 208 189 188 188 178 173 171 173 166 185 220 236 184 182 179 178 178 181 183 179 177 183 177 180 190 193 177 175 189 156 143 148 90 112 138 139 160 174 176 171 171
20 18 17 11 10 3 2 4 8 8 6 4 360 356 344 336 339 341 328 335 331 291 265 253 260 7 12 358 322 313 287 208 191 222 236 248 228 216 198 185 178 199 199 203 201 192 194 192 183 181 178 169 168 184 185 231 205 183 179 179 183 188 177 181 187 181 185 188 171 166 185 186 175 156 145 142 148 136 150 156 150 159 122 173 80
13 15 16 12 7 6 4 2 2 4 2 1 359 358 358 353 343 342 342 346 317 348 348 340 357 4 13 27 220 198 230 211 191 219 245 243 242 251 232 168 184 211 264 315 50 196 201 192 186 182 183 178 165 180 186 209 228 179 178 179 182 176 182 178 183 173 178 178 176 183 179 179 173 161 155 167 162 167 158 158 148 153 152 147 174
16 11 7 8 7 5 6 3 1 356 359 358 359 356 356 355 355 348 345 335 335 344 343 350 323 303 238 185 208 204 189 180 179 195 217 232 234 220 226 202 130 85 44 119 335 269 226 204 194 187 186 183 181 186 189 192 200 202 170 175 179 173 169 188 182 177 182 181 184 174 163 189 176 166 172 164 173 157 153 155 155 158 155 166 158
17 13 9 3 2 4 3 359 360 356 355 352 352 354 355 356 359 358 352 342 332 328 309 293 241 239 234 211 209 232 232 207 200 190 190 200 234 298 299 117 124 166 168 168 172 154 264 251 214 195 186 184 180 181 182 186 192 191 175 174 182 174 173 191 175 180 182 174 173 177 189 182 180 166 161 167 157 147 163 168 171 173 173 153 167
14 12 8 5 2 359 359 357 357 353 351 350 354 353 357 357 0 359 353 354 343 320 309 268 278 277 271 263 273 293 311 318 349 16 120 175 184 198 182 244 216 165 170 181 175 172 172 208 247 232 187 179 185 178 176 174 187 194 183 185 179 173 176 177 181 172 164 160 166 175 179 184 167 168 176 168 161 160 162 176 187 191 173 168 164
13 11 4 2 359 357 357 352 350 351 354 356 355 357 359 4 1 3 355 355 354 344 328 294 295 293 298 308 294 280 319 332 330 88 175 217 198 154 169 190 213 216 178 187 174 171 177 170 185 236 221 189 186 180 180 185 179 183 184 172 171 178 170 179 178 167 160 157 164 178 183 183 168 174 166 160 159 158 172 180 192 185 191 181 165
8 4 3 359 355 356 356 352 351 348 347 355 357 360 4 3 1 358 355 1 357 354 351 348 335 313 306 309 302 295 184 225 241 238 221 230 232 203 196 193 195 202 185 183 180 173 170 169 151 158 239 203 186 184 181 181 173 183 170 165 168 167 174 178 171 168 153 167 166 174 181 181 172 163 163 165 165 172 163 173 186 192 186 154 151
4 2 358 356 354 353 352 352 347 344 347 357 4 5 1 360 3 4 357 352 353 351 351 348 339 337 325 308 302 305 280 250 248 242 217 215 232 218 207 205 185 194 185 179 179 169 156 158 155 151 144 266 189 177 174 170 173 174 172 168 163 169 175 179 166 166 166 166 176 178 182 184 165 166 172 161 165 165 163 170 176 176 165 162 159
3 0 356 355 354 352 350 351 349 355 358 359 359 360 5 6 3 359 357 352 343 348 351 344 335 329 333 319 298 266 241 248 253 263 234 230 228 210 212 197 203 196 188 184 176 166 157 151 162 163 174 164 254 180 170 167 169 165 166 165 165 170 175 174 172 176 175 183 179 180 177 175 177 164 163 167 167 161 167 161 174 182 189 175 181
6 1 357 356 355 353 350 354 355 357 355 357 357 1 360 0 0 357 353 346 344 344 338 340 337 332 329 327 318 280 239 246 259 269 261 255 240 222 204 206 209 199 198 190 174 166 156 151 156 164 170 177 192 208 171 170 170 168 165 170 174 174 174 172 181 185 180 172 176 183 176 169 168 160 169 169 163 169 165 171 179 183 185 182 187
8 3 359 357 353 353 356 358 359 359 359 359 356 356 355 357 357 349 348 344 345 345 336 329 344 342 335 329 322 314 279 243 241 245 251 249 248 236 212 214 208 185 189 190 174 166 162 155 156 167 187 185 180 200 176 180 177 170 167 171 178 183 180 177 180 178 173 174 179 177 179 168 171 173 165 168 172 165 167 174 177 188 187 178 184
11 7 0 357 359 1 358 359 1 0 358 359 0 357 355 352 352 349 345 346 345 340 337 335 341 341 343 341 335 327 316 296 248 224 233 234 235 237 227 222 212 196 186 173 177 169 162 164 168 172 179 182 185 192 180 186 182 173 171 173 178 181 182 181 179 177 173 174 175 189 176 168 172 176 167 170 173 172 170 165 177 181 187 182 171
14 9 5 1 355 354 360 2 2 3 359 358 357 357 355 354 352 351 349 347 348 342 344 343 341 340 339 334 328 326 323 316 301 250 241 235 228 228 220 228 225 212 184 188 179 175 174 179 177 175 173 173 182 196 186 184 177 173 173 175 175 179 183 179 179 173 175 176 181 188 174 171 174 182 186 176 171 174 165 170 174 178 183 164 166
16 10 2 359 2 359 357 2 1 358 356 356 354 354 355 354 354 355 352 348 347 347 346 345 343 341 336 331 321 317 314 312 303 269 250 236 222 219 206 206 187 187 191 188 188 179 182 181 184 175 175 172 181 189 181 177 172 168 172 173 176 182 179 178 175 172 176 184 185 184 180 179 186 191 180 176 170 180 178 182 180 177 177 165 168
21 16 11 4 357 352 357 358 359 358 353 354 354 352 353 354 354 353 352 353 345 350 350 349 347 344 339 329 318 313 313 308 300 281 260 245 233 227 216 207 199 198 183 183 179 180 186 184 183 184 174 164 171 180 179 179 173 171 170 177 180 181 180 179 170 173 165 148 143 163 184 192 194 185 181 174 170 179 182 185 191 174 173 181 188
18 12 7 4 3 357 357 359 358 357 360 356 353 351 350 353 358 357 355 356 345 352 354 354 351 347 339 328 320 314 313 310 303 288 264 246 234 222 214 201 198 198 187 181 177 179 165 167 172 168 158 155 172 180 179 177 173 170 169 172 178 181 178 176 154 113 99 106 112 137 154 174 178 159 151 151 169 182 178 180 184 168 164 179 185
11 6 3 2 1 0 357 356 360 2 359 358 354 352 350 353 356 356 358 353 349 353 357 357 358 351 338 334 327 323 319 315 310 294 268 247 236 228 218 208 200 195 201 183 162 171 167 164 164 160 150 158 168 166 176 181 176 170 172 173 173 177 174 160 136 117 109 115 118 111 114 117 107 106 131 165 182 184 187 186 172 169 169 170 172
9 4 2 0 4 4 2 2 2 0 358 357 354 349 351 357 357 357 357 351 351 355 355 357 358 352 345 336 335 334 328 324 323 311 279 254 239 226 220 213 202 193 198 181 164 167 168 166 169 160 155 162 159 159 165 183 187 172 165 168 174 174 164 150 145 138 134 127 99 84 84 90 98 100 97 94 106 124 163 196 186 173 179 176 169
4 360 3 6 5 2 3 2 359 357 356 360 358 356 0 1 355 357 351 350 357 356 356 356 354 353 351 346 341 338 337 331 327 326 307 261 238 226 219 213 199 192 193 184 176 170 164 166 168 156 152 159 162 162 172 185 184 177 171 169 164 152 147 139 136 133 132 133 122 101 74 74 93 112 114 97 81 77 85 83 77 64 67 64 108
3 0 0 3 5 3 0 359 358 355 357 358 359 360 1 354 355 349 352 0 0 1 357 359 355 355 354 350 345 343 340 339 335 325 326 295 249 237 226 206 204 195 175 179 181 158 156 161 162 151 154 157 160 170 184 189 183 177 167 143 134 134 131 132 130 134 137 136 132 117 101 61 89 111 108 108 110 99 88 87 82 73 60 61 68
8 357 2 2 4 360 358 358 355 352 357 351 358 1 350 347 350 354 10 6 6 4 4 359 357 357 353 353 350 350 348 344 344 345 346 349 319 264 228 209 187 148 157 155 163 154 145 154 158 144 139 133 136 161 183 179 168 154 137 119 115 108 102 103 110 116 118 127 135 131 120 109 98 107 113 111 106 102 97 81 69 56 51 45 47
7 7 5 5 358 352 356 359 359 357 353 355 356 358 348 357 358 9 15 14 11 9 8 2 0 356 355 355 352 352 354 350 355 358 3 4 5 10 2 1 69 87 88 121 144 140 129 122 117 117 118 100 41 9 175 148 139 131 117 109 103 93 98 91 83 88 93 101 105 102 110 119 122 115 118 118 107 100 90 82 74 64 57 49 41
13 10 4 1 357 355 355 351 349 356 354 356 353 346 359 359 359 13 12 12 11 13 10 4 1 358 356 354 350 351 354 356 4 12 14 14 16 13 16 16 353 52 60 66 46 43 68 86 100 107 106 83 48 53 125 143 135 127 113 105 104 99 103 90 84 74 76 71 80 97 113 112 119 115 119 115 117 115 100 89 80 74 65 56 50
12 6 3 5 3 360 354 354 355 358 357 351 344 349 359 4 9 10 12 10 10 12 8 3 1 357 356 355 355 356 357 1 7 22 22 22 19 18 23 16 15 5 66 53 51 53 41 34 31 69 99 84 66 53 77 128 138 125 109 109 106 95 85 86 79 74 70 74 70 75 84 108 100 94 118 124 133 121 104 103 98 85 77 71 56
16 10 14 14 8 0 359 2 354 355 353 347 349 353 2 9 10 8 12 11 12 7 359 359 359 356 356 356 356 359 3 4 9 22 29 28 24 29 31 21 22 1 47 62 60 57 47 45 41 24 30 84 72 56 61 56 65 120 124 120 116 104 94 92 89 65 64 59 63 73 84 84 95 90 107 117 129 118 111 115 112 110 101 91 73
26 20 16 6 0 355 0 5 3 360 345 348 354 358 4 8 6 6 10 14 10 1 356 353 351 354 358 358 357 4 8 5 8 19 30 33 33 26 31 36 23 9 41 65 65 60 53 43 45 40 25 36 57 50 50 51 60 76 104 116 118 114 108 103 102 88 71 72 63 57 63 71 87 96 90 88 87 108 119 127 127 115 109 105 114
11 19 15 9 6 14 10 3 358 344 336 351 355 357 4 7 4 4 15 13 3 352 347 348 351 356 0 4 3 9 10 10 6 11 21 44 47 41 28 38 33 359 46 61 61 58 62 50 45 48 38 29 28 35 35 50 51 56 71 107 118 119 118 113 98 92 93 66 58 55 55 59 75 81 83 82 77 85 109 108 115 112 118 116 146
16 11 8 15 11 15 6 356 345 340 346 351 355 3 8 3 5 13 15 1 345 344 353 358 359 1 4 7 8 12 15 11 8 7 14 32 37 58 50 40 36 10 26 65 60 58 62 57 49 50 47 39 33 32 29 38 46 50 52 73 93 101 115 110 105 89 75 82 66 62 66 60 69 69 72 73 71 67 72 81 70 91 94 123 127
16 19 16 5 6 10 9 4 356 355 355 355 358 12 3 358 5 13 7 351 343 346 357 7 10 7 4 7 12 15 19 15 8 10 16 37 28 37 52 58 49 28 30 55 61 61 61 60 53 48 44 42 37 38 34 29 38 50 52 54 82 77 95 114 100 89 87 74 74 73 61 70 75 72 68 69 71 72 72 74 73 86 95 104 104
6 3 1 7 7 4 2 357 353 356 357 359 6 7 358 354 8 358 357 358 348 349 1 12 15 13 9 9 13 17 19 18 13 10 24 31 31 34 42 44 48 49 37 39 48 49 59 59 54 46 41 37 32 37 34 32 29 41 50 58 64 74 75 83 101 101 95 96 88 86 83 79 78 75 71 65 64 66 67 77 89 92 93 93 95
359 2 355 3 4 356 353 346 350 354 359 3 12 4 358 360 357 339 356 358 358 356 3 12 17 18 13 12 12 15 19 23 20 17 25 26 26 29 34 35 44 46 46 40 33 36 48 53 52 44 39 32 28 32 34 32 31 36 44 53 60 65 67 80 88 97 97 102 98 89 94 90 84 82 79 74 66 61 67 68 74 82 85 86 92
356 342 352 5 359 339 342 348 347 354 353 359 6 10 1 358 337 344 355 355 356 3 12 10 13 16 18 11 17 19 16 21 23 26 28 19 23 25 35 26 34 41 47 55 46 42 46 45 45 44 37 33 27 29 33 24 26 35 41 55 66 70 71 79 84 87 90 89 103 103 90 83 80 77 76 76 70 62 60 60 62 68 76 71 77
352 354 354 350 351 354 358 353 341 349 351 352 353 7 3 339 334 349 352 351 356 9 14 14 10 16 15 16 20 15 19 20 24 30 34 29 25 25 29 23 28 34 34 37 40 49 53 51 48 40 37 36 35 36 32 26 18 23 40 58 72 79 79 74 80 89 94 96 91 87 84 77 71 69 65 58 58 59 58 56 53 53 53 56 49
346 328 340 352 4 355 350 349 341 338 345 341 349 355 351 341 345 344 348 351 4 11 14 14 14 9 14 20 23 16 21 23 20 22 34 32 27 28 32 28 22 25 37 37 35 40 44 45 45 38 32 25 27 30 27 24 16 21 25 42 68 78 88 92 87 86 85 83 75 76 81 82 84 77 76 72 66 56 52 44 44 39 47 52 51
318 315 349 347 353 346 336 337 328 326 338 341 349 351 343 343 346 349 346 357 9 9 9 12 10 9 16 14 21 20 27 31 27 28 29 26 27 30 41 32 23 17 32 44 47 42 44 52 57 52 48 43 37 28 22 10 5 10 16 34 49 55 56 85 96 84 80 81 83 79 74 78 80 68 62 56 54 54 50 45 40 38 39 48 58
336 333 342 325 317 333 332 329 324 330 339 339 340 343 346 345 345 348 352 2 10 3 10 12 6 10 11 3 15 28 27 22 31 46 49 40 32 26 31 40 26 14 12 49 76 66 57 51 60 50 54 59 50 47 22 355 360 12 20 46 57 62 64 48 75 104 94 66 67 69 81 66 61 66 58 56 51 56 51 42 35 34 33 43 42
315 313 330 341 351 350 333 327 320 335 339 337 333 337 340 343 347 353 356 5 7 13 16 7 3 7 2 360 3 14 23 35 30 26 49 58 52 55 50 53 25 16 49 56 70 84 87 95 90 52 29 57 72 50 13 35 45 55 55 60 66 72 91 99 75 63 86 78 66 73 62 71 66 67 69 64 59 55 58 50 42 30 40 49 50
343 354 346 351 338 346 350 344 338 334 338 334 329 332 343 341 345 346 358 357 13 19 15 8 5 2 349 344 353 7 6 19 35 42 26 54 53 37 42 45 47 47 51 52 60 66 66 55 81 99 62 62 57 32 34 54 76 91 93 92 96 101 105 112 124 90 41 64 79 73 67 70 76 80 85 86 83 81 67 71 61 59 49 54 61